Regional Weather Roundup
Issued by NWS

Home | Current Version | Previous Version | Graphics & Text | Print | Product List | Glossary On
Versions: 1 2 3 4 5 6 7 8 9 10 11 12 13 14 15 16 17 18 19 20 21 22 23 24 25 26 27 28 29 30 31 32 33 34 35 36 37 38 39 40 41 42 43 44 45 46 47 48 49 50
000
ASUS45 KABQ 221701
RWRNM
WEATHER ROUNDUP FOR NEW MEXICO
NATIONAL WEATHER SERVICE ALBUQUERQUE NM
1100 AM MDT MON SEP 22 2014

NOTE: "FAIR" MEANS FEW OR NO CLOUDS BELOW 12,000 FEET AGL WITH NO
       SIGNIFICANT WEATHER OR OBSTRUCTIONS TO VISION.

      THIS PRODUCT IS RELEASED AS TWO VERSIONS.  ONE VERSION NEAR
      THE TOP OF THE HOUR CONTAINING PRELIMINARY DATA FROM ALBUQUERQUE
      AND OTHER STATIONS.  A FINAL VERSION WITH ADDITIONAL DATA IS
      ISSUED ABOUT 10 MINUTES AFTER THE HOUR.

NMZ501-503-504-510>518-221800-
NORTHWEST PLATEAU/NORTHCENTRAL MOUNTAINS

CITY           SKY/WX    TMP DP  RH WIND       PRES   REMARKS
FARMINGTON     PTSUNNY   70  56  61 S6        30.29S
LOS ALAMOS     PTSUNNY   59  59  97 S7        30.43F
SANTA FE       CLOUDY    66  55  67 S14       30.39R
TAOS           PTSUNNY   66  50  55 SW12      30.42S
ANGEL FIRE     CLOUDY    62  50  65 S13       30.47F

$$
NMZ402-403-502-505>509-221800-
WESTCENTRAL MOUNTAINS/SOUTHWEST MOUNTAINS

CITY           SKY/WX    TMP DP  RH WIND       PRES   REMARKS
GALLUP         LGT RAIN  61  57  87 W3        30.36S
GRANTS         MOSUNNY   72  55  56 SE10G17   30.38F
SILVER CITY    PTSUNNY   70  63  78 E12       30.33S

$$
NMZ407-409-411-412-221800-
SOUTHERN DESERTS

CITY           SKY/WX    TMP DP  RH WIND       PRES   REMARKS
LORDSBURG      CLOUDY    72  63  73 MISG      30.23S
DEMING         CLOUDY    70  65  84 E10       30.25S
LAS CRUCES     CLOUDY    71  65  80 SE8       30.27S
ALAMOGORDO     PTSUNNY   73  63  68 NW3       30.27S
T OR C         CLOUDY    72  62  71 SE5       30.28S

$$
NMZ519>523-221800-
CENTRAL VALLEYS/CENTRAL HIGHLANDS

CITY           SKY/WX    TMP DP  RH WIND       PRES   REMARKS
ALBUQUERQUE    PTSUNNY   72  56  57 NW5       30.33S
DOUBLE EAGLE   PTSUNNY   68  55  64 CALM      30.37R
CLINES CORNERS LGT RAIN  59  57  93 S13       30.43S FOG
BELEN          CLOUDY    72  58  62 SE7       30.32F
SOCORRO        FAIR      73  61  67 S6        30.30S

$$
NMZ524>526-539-540-221800-
SOUTHCENTRAL MOUNTAINS

CITY           SKY/WX    TMP DP  RH WIND       PRES   REMARKS
RUIDOSO        NOT AVBL

$$
NMZ527>531-221800-
NORTHEAST HIGHLANDS/NORTHEAST PLAINS

CITY           SKY/WX    TMP DP  RH WIND       PRES   REMARKS
LAS VEGAS      LGT RAIN  58  56  93 S16       30.43S FOG
RATON          CLOUDY    62  58  86 S16       30.37S
CLAYTON        CLOUDY    64  56  75 S15       30.35F

$$
NMZ532>537-221800-
EASTCENTRAL PLAINS

CITY           SKY/WX    TMP DP  RH WIND       PRES   REMARKS
TUCUMCARI      CLOUDY    68  62  81 S10       30.32S
CANNON AFB     CLOUDY    63  62  97 SE12      30.34F FOG
CLOVIS AIRPORT   N/A     63  61  94 SE14      30.37S

$$
NMZ028-029-538-221800-
SOUTHEAST PLAINS

CITY           SKY/WX    TMP DP  RH WIND       PRES   REMARKS
ROSWELL        LGT RAIN  69  66  90 SE9       30.28S
CARLSBAD       CLOUDY    72  32  23 SE13      30.25S
HOBBS          CLOUDY    68  68 100 E10       30.31R


$$



USA.gov is the U.S. government's official web portal to all federal, state and local government web resources and services.